Weather History for PASV - March, 2013

Change the Weather History Date:

Monday, March 4, 2013

  Actual Average Record
Temperature  
Mean Temperature 38 °F -  
Max Temperature 39 °F - - ()
Min Temperature 35 °F - - ()
Degree Days  
Heating Degree Days 28    
Moisture  
Dew Point 23 °F    
Average Humidity 55    
Maximum Humidity 63    
Minimum Humidity 46    
Precipitation  
Precipitation 0.00 in - - ()
Sea Level Pressure  
Sea Level Pressure 30.22 in    
Wind  
Wind Speed 16 mph (SE)    
Max Wind Speed 25 mph    
Max Gust Speed 31 mph    
Visibility 10 miles    
Events      
T = Trace of Precipitation, MM = Missing Value Source: NWS Daily Summary

Daily Weather History Graph

Daily Weather History Graph

Search for Another Location

Airport or City:

Trip Planner

Search our weather history database for the weather conditions in past years. The results will help you decide how hot, cold, wet, or windy it might be!

Date:

Astronomy

Mar. 04, 2013 Rise Set
Actual Time 8:12 AM AKST 6:56 PM AKST
Civil Twilight 7:29 AM AKST 7:40 PM AKST
Nautical Twilight 6:39 AM AKST 8:29 PM AKST
Astronomical Twilight 5:48 AM AKST 9:21 PM AKST
Moon 3:50 AM AKST 10:29 AM AKST
Length of Visible Light 12h 10m
Length of Day
10h 44m
Waning Gibbous, 50% of the Moon is Illuminated
Mar 4
Waning Gibbous
Mar 4
Last Quarter
Mar 11
New
Mar 19
First Quarter
Mar 27
Full

Hourly Weather History & Observations

Time (AKST) Temp. Windchill Dew Point Humidity Pressure Visibility Wind Dir Wind Speed Gust Speed Precip Events Conditions
12:55 AM 37.4 °F 28.5 °F 18.5 °F 46% 30.27 in 10.0 mi ESE 15.0 mph - N/A   Mostly Cloudy
1:55 AM 36.9 °F 30.1 °F 18.3 °F 47% 30.26 in 10.0 mi East 9.2 mph - N/A   Mostly Cloudy
3:55 AM 38.1 °F 29.1 °F 19.4 °F 47% 30.27 in 10.0 mi ESE 16.1 mph 23.0 mph N/A   Mostly Cloudy
4:55 AM 38.7 °F 28.8 °F 19.9 °F 47% 30.27 in 10.0 mi ESE 19.6 mph - N/A   Mostly Cloudy
5:55 AM 38.8 °F 29.1 °F 21.7 °F 50% 30.27 in 10.0 mi SE 19.6 mph 31.1 mph N/A   Mostly Cloudy
6:55 AM 38.3 °F 32.5 °F 21.6 °F 51% 30.27 in 10.0 mi East 8.1 mph 20.7 mph N/A   Overcast
7:55 AM 37.8 °F 29.8 °F 21.9 °F 53% 30.26 in 10.0 mi ESE 12.7 mph 21.9 mph N/A   Overcast
8:55 AM 37.6 °F 28.8 °F 22.5 °F 54% 30.26 in 10.0 mi ESE 15.0 mph 23.0 mph N/A   Mostly Cloudy
9:55 AM 38.5 °F 28.1 °F 23.0 °F 54% 30.25 in 10.0 mi ESE 21.9 mph 29.9 mph N/A   Mostly Cloudy
10:55 AM 39.2 °F 29.8 °F 23.7 °F 54% 30.25 in 10.0 mi SE 18.4 mph 29.9 mph N/A   Mostly Cloudy
11:55 AM 39.7 °F 30.9 °F 25.0 °F 56% 30.25 in 10.0 mi SE 17.3 mph 23.0 mph N/A   Mostly Cloudy
12:55 PM 39.4 °F 30.1 °F 25.9 °F 58% 30.24 in 10.0 mi SE 18.4 mph 27.6 mph N/A   Partly Cloudy
1:55 PM 39.2 °F 30.2 °F 26.6 °F 61% 30.15 in 10.0 mi SE 17.3 mph 29.9 mph N/A   Partly Cloudy
2:55 PM 39.6 °F 29.5 °F 25.3 °F 57% 30.21 in 10.0 mi SSE 21.9 mph 29.9 mph N/A   Clear
3:55 PM 39.4 °F 28.5 °F 25.2 °F 57% 30.20 in 10.0 mi SE 25.3 mph 31.1 mph N/A   Scattered Clouds
4:55 PM 39.0 °F 29.3 °F 25.3 °F 58% 30.19 in 10.0 mi SE 19.6 mph 31.1 mph N/A   Partly Cloudy
5:55 PM 38.3 °F 28.4 °F 25.5 °F 60% 30.19 in 10.0 mi SSE 19.6 mph 27.6 mph N/A   Scattered Clouds
6:55 PM 37.8 °F 28.0 °F 25.3 °F 61% 30.18 in 10.0 mi SE 18.4 mph 25.3 mph N/A   Mostly Cloudy
7:55 PM 37.4 °F 27.8 °F 24.6 °F 60% 30.17 in 10.0 mi SSE 17.3 mph 25.3 mph N/A   Overcast
8:55 PM 36.7 °F 28.9 °F 24.4 °F 61% 30.17 in 10.0 mi SE 11.5 mph 20.7 mph N/A   Mostly Cloudy
9:55 PM 36.1 °F 25.5 °F 24.4 °F 63% 30.15 in 10.0 mi SE 19.6 mph 25.3 mph N/A   Mostly Cloudy
10:55 PM 36.0 °F 28.5 °F 24.1 °F 62% 30.15 in 10.0 mi SE 10.4 mph 21.9 mph N/A   Mostly Cloudy
11:55 PM 35.8 °F 28.8 °F 22.8 °F 59% 30.14 in 10.0 mi SE 9.2 mph 12.7 mph N/A   Mostly Cloudy